Simultaneous Nadir Overpasses (SNOs) Predictions

Prediction of SNOs between FY3D and TERRA Satellite Orbit:

Table of predicted SNOs for the next 14.0 days since TLE Epoch: 6/22/2019
Index Date (FY3D) Time (FY3D) Lat,Lon (FY3D) SZA (FY3D ) Date (TERRA) Time (TERRA) Lat,Lon (TERRA) SZA (TERRA ) Distance(km) Time Diff (sec)
1 06/22/2019 04:40:35 69.14, 108.61 45.61 06/22/2019 04:41:46 69.05, 109.16 45.51 23.61 71
2 06/22/2019 05:31:12 -68.79, -83.60 134.75 06/22/2019 05:31:19 -68.78, -83.56 134.77 2.48 7
3 06/22/2019 06:21:55 68.65, 83.91 45.11 06/22/2019 06:20:46 68.67, 83.95 45.12 2.53 69
4 06/24/2019 20:57:02 69.14,-135.50 45.64 06/24/2019 20:58:14 69.04,-134.98 45.53 23.20 72
5 06/24/2019 21:47:39 -68.78, 32.30 134.72 06/24/2019 21:47:47 -68.76, 32.30 134.75 2.36 8
6 06/24/2019 22:38:22 68.64,-160.20 45.14 06/24/2019 22:37:14 68.65,-160.19 45.14 0.53 68
7 06/27/2019 13:13:29 69.18, -19.68 45.77 06/27/2019 13:14:40 69.07, -19.06 45.64 27.83 71
8 06/27/2019 14:04:05 -68.77, 148.20 134.65 06/27/2019 14:04:13 -68.80, 148.23 134.63 3.03 8
9 06/27/2019 14:54:48 68.64, -44.31 45.22 06/27/2019 14:53:41 68.62, -44.34 45.21 2.22 67
10 06/30/2019 05:29:56 69.18, 96.21 45.90 06/30/2019 05:31:07 69.09, 96.86 45.80 27.33 71
11 06/30/2019 06:20:32 -68.76, -95.90 134.53 06/30/2019 06:20:41 -68.77, -95.92 134.52 1.24 9
12 06/30/2019 07:11:15 68.63, 71.58 45.35 06/30/2019 07:10:08 68.65, 71.58 45.37 1.40 67
13 07/02/2019 21:46:23 69.17,-147.89 46.08 07/02/2019 21:47:35 69.05,-147.31 45.94 26.91 72
14 07/02/2019 22:37:00 -68.80, 19.93 134.30 07/02/2019 22:37:08 -68.79, 20.00 134.31 3.03 8
15 07/02/2019 23:27:42 68.63,-172.53 45.53 07/02/2019 23:26:36 68.61,-172.59 45.51 3.26 66
16 07/05/2019 14:02:51 69.22, -32.08 46.36 07/05/2019 14:04:01 69.12, -31.33 46.24 31.45 70
17 07/05/2019 14:53:26 -68.74, 135.90 134.13 07/05/2019 14:53:36 -68.75, 135.83 134.12 2.99 10
18 07/05/2019 15:44:09 68.62, -56.63 45.76 07/05/2019 15:43:03 68.62, -56.69 45.76 2.08 66




NCC Satellite Simultaneous Nadir Overpasses (SNOs) Prediction Service
